RH
59 60 61 59 58 56 54 53 54 54 52 52 52 46 42 40 36 37 48 57 57 58 63 71 79 87 92 93 92 92 92 91 90 89 86 82 77 74 75 76 78 77 75 72 65 62 61 64 74 78 79 85 89 90 94 99 98 87 82 88 91 92 90 88 87 86 88 91 92 90 91 88 72 59
64 64 64 62 59 58 56 55 55 56 56 57 57 51 44 42 42 44 50 54 55 59 61 63 74 85 91 93 93 93 94 94 93 90 87 83 78 77 79 77 78 80 77 73 69 65 63 65 72 78 82 86 89 90 90 96 98 91 87 90 92 93 92 90 89 89 91 91 92 93 91 82 66 58
69 69 66 63 60 59 59 58 57 57 58 59 59 55 49 46 48 53 57 54 50 56 61 61 68 81 89 92 94 94 95 96 95 92 89 86 80 77 80 79 77 81 80 75 72 70 66 66 71 77 83 87 89 89 88 91 97 97 93 91 91 92 93 93 91 90 91 90 91 90 81 70 61 57
73 72 66 63 64 66 67 66 64 61 59 60 60 57 52 51 55 57 58 57 52 52 58 62 66 76 85 89 92 94 95 97 96 94 90 88 83 77 78 80 77 79 81 78 76 74 69 66 71 78 84 87 88 89 89 90 94 97 97 93 92 94 95 96 92 89 89 87 83 77 67 61 58 54
78 76 68 66 71 76 76 73 69 64 61 61 60 59 53 48 52 57 57 58 56 52 54 60 65 74 82 87 90 93 95 97 97 96 92 90 85 78 77 81 79 78 81 80 79 78 75 69 70 78 85 86 87 89 91 91 91 94 98 96 94 95 97 95 91 87 83 77 70 62 56 55 54 53
84 79 69 68 74 79 79 76 73 68 64 63 62 61 58 49 46 53 58 57 57 56 56 60 65 73 80 84 88 93 96 97 98 98 95 91 86 81 79 83 83 82 82 81 80 79 79 73 69 77 86 86 86 89 91 91 91 92 95 96 95 96 97 95 90 86 79 71 64 58 56 55 52 56
85 79 71 69 72 79 80 79 79 75 71 69 65 62 61 57 50 54 58 58 59 60 59 61 67 74 79 83 88 93 96 97 98 98 97 93 89 84 82 83 85 85 83 81 79 78 79 77 72 76 86 88 87 90 91 92 92 91 93 96 96 95 97 95 92 88 80 71 65 61 59 56 54 59
83 78 74 72 73 78 81 81 80 80 77 75 73 67 63 60 57 58 58 59 64 68 65 62 68 76 80 83 89 93 96 97 98 98 97 95 92 88 84 83 84 86 84 81 79 77 76 76 74 75 83 89 92 92 92 92 92 92 93 96 96 95 96 96 95 91 84 77 70 64 61 57 54 59
83 80 79 76 76 78 81 82 81 81 81 79 77 74 66 61 59 59 59 60 68 77 73 65 67 76 79 83 89 93 97 98 98 99 98 96 94 91 87 84 82 84 85 83 82 79 75 74 75 77 82 88 94 95 93 92 92 93 93 94 96 96 95 96 96 94 90 87 82 71 65 61 56 57
83 81 82 81 81 81 83 85 84 83 82 79 79 78 72 64 60 58 58 61 70 80 77 66 66 72 76 81 89 93 96 99 99 99 99 97 96 94 89 86 83 83 85 84 84 84 79 74 74 78 83 87 94 98 95 93 93 94 94 93 94 96 95 94 95 96 92 90 90 81 70 64 59 57
84 82 83 85 87 86 86 89 89 87 85 81 80 80 77 70 62 58 57 58 68 81 77 65 67 73 74 79 89 94 98 100 100 100 100 98 97 95 91 88 85 84 86 87 87 87 86 80 75 77 84 88 92 97 98 96 94 94 95 94 93 94 94 92 93 96 94 90 92 90 81 71 63 57
86 82 84 88 91 89 88 90 92 92 90 86 83 80 79 74 63 58 58 55 64 79 76 66 69 74 75 79 89 97 100 100 100 99 99 99 98 95 93 91 90 88 89 90 89 89 89 88 81 77 81 88 91 95 98 97 96 95 96 97 96 93 92 92 91 93 95 94 94 95 93 85 71 58
88 84 85 89 93 93 90 90 95 97 94 91 88 82 79 76 66 57 55 53 60 71 69 65 70 75 75 79 90 99 99 99 99 99 99 100 99 97 95 93 93 92 91 92 92 90 90 91 88 82 80 83 88 92 96 97 98 97 96 96 96 94 93 93 91 91 95 96 95 97 99 97 85 68
89 85 86 87 91 95 92 90 95 99 98 95 92 85 79 79 75 65 57 51 54 61 60 64 73 78 79 82 90 99 100 98 100 100 99 100 100 100 98 96 95 94 93 93 93 92 91 92 92 88 82 81 84 89 92 95 98 98 96 95 94 94 94 94 92 91 93 94 95 96 99 101 95 83
90 85 85 86 90 94 94 92 94 98 100 98 95 89 82 80 80 77 69 58 53 56 60 67 77 83 85 85 90 99 100 99 100 100 99 100 100 100 99 97 96 95 95 94 92 91 92 93 94 92 88 83 82 85 88 91 96 99 98 96 94 94 94 94 94 93 92 92 94 94 95 99 99 93
90 85 83 85 90 95 94 92 92 95 99 100 97 92 86 81 79 79 77 67 58 62 69 74 80 85 86 86 90 98 100 99 100 100 100 100 100 100 99 97 96 97 97 96 94 93 93 93 94 95 93 87 82 82 86 89 94 98 99 98 96 95 94 93 93 92 90 92 93 92 92 96 98 97
88 86 84 84 88 94 95 92 90 93 98 99 97 94 88 81 78 78 78 73 70 74 78 79 81 85 86 85 89 96 99 99 100 100 99 100 100 100 100 99 98 98 98 98 97 96 95 94 94 94 95 92 85 82 83 87 90 95 99 100 98 97 96 94 93 93 91 91 93 93 92 93 93 93
86 85 84 82 84 90 93 92 89 91 95 96 95 94 90 84 79 79 79 78 78 80 81 79 81 86 87 86 89 96 100 99 100 100 99 100 100 100 100 100 100 100 99 99 99 98 97 96 95 93 94 94 89 84 82 84 87 90 94 98 99 98 97 95 94 95 94 92 92 93 94 93 91 90
87 85 83 82 82 87 91 91 89 89 92 95 95 95 93 87 82 80 80 80 80 81 81 81 83 86 89 87 90 97 100 99 100 100 100 100 100 100 100 100 100 100 100 100 100 100 98 96 96 95 93 93 92 87 83 83 84 86 88 91 95 97 96 95 94 93 94 94 93 93 95 94 92 91
87 85 83 81 81 86 91 92 89 88 88 92 94 95 94 91 87 83 81 81 81 81 83 84 84 89 92 90 92 98 100 99 100 100 100 100 99 99 100 100 100 100 100 100 100 100 99 97 97 96 95 93 93 90 86 83 83 84 84 86 89 92 94 95 93 89 88 92 93 94 95 96 94 92
84 83 83 81 79 84 90 91 90 89 87 88 92 95 94 93 90 85 82 81 81 82 85 86 87 92 95 94 97 100 100 100 100 99 100 100 99 100 100 100 100 100 100 100 99 99 100 99 98 98 97 96 95 93 90 87 85 84 84 83 84 86 88 91 93 90 86 86 91 93 96 98 98 96
80 80 83 82 79 81 88 90 90 90 87 86 90 93 93 92 91 87 81 79 80 84 88 89 90 94 97 97 99 101 100 100 100 100 100 100 100 100 100 100 100 100 100 100 99 98 99 100 100 100 99 98 97 96 94 91 89 87 85 82 82 83 84 85 89 91 88 85 86 91 95 98 100 100
77 77 80 82 80 80 85 88 90 90 88 85 87 90 91 91 93 89 82 79 79 83 88 91 92 95 98 99 100 100 100 100 100 100 100 100 100 100 100 100 100 100 100 100 99 99 99 99 100 100 100 100 99 98 96 94 92 91 88 84 81 81 82 83 84 86 87 84 82 86 92 96 99 100
75 74 77 81 81 80 82 87 89 90 89 87 86 88 89 90 91 88 82 79 78 80 85 90 92 95 99 99 99 99 99 100 100 100 100 100 100 100 100 100 100 99 100 100 100 100 100 99 100 100 100 100 100 99 98 97 94 93 92 88 84 80 80 81 82 82 82 82 80 80 85 90 94 97
74 74 74 78 81 80 80 84 89 91 89 88 87 86 87 89 87 82 78 78 78 80 83 87 90 94 97 98 96 96 99 100 100 100 100 100 100 100 100 100 100 100 100 100 100 100 100 99 100 100 99 99 99 100 100 99 97 96 94 92 89 84 80 78 80 80 79 79 79 78 79 83 88 92
71 74 73 75 79 80 78 79 86 91 89 88 86 85 85 86 83 78 74 75 77 80 84 87 89 92 95 95 95 97 99 100 99 100 100 100 100 100 100 100 100 99 100 100 99 100 100 100 100 100 99 98 99 100 100 100 99 98 96 95 94 90 85 81 79 78 77 76 76 77 76 78 82 86
67 73 74 73 75 78 78 76 81 88 89 87 84 81 80 80 78 75 74 74 76 79 84 86 88 90 91 93 94 96 98 100 99 98 99 99 99 100 100 100 100 100 100 100 100 100 100 100 100 99 100 99 99 100 100 100 100 99 98 97 96 95 92 89 84 81 77 75 74 74 74 74 76 79
61 72 75 73 71 73 76 76 77 82 86 86 83 80 78 77 76 75 75 77 78 79 84 87 88 88 89 91 91 92 95 98 99 97 96 97 98 100 101 100 99 99 99 99 100 100 100 100 100 100 100 100 100 100 100 100 100 100 99 99 98 97 96 94 92 89 84 79 74 71 70 70 71 73
55 67 71 70 67 68 72 75 76 77 79 81 82 81 79 78 77 76 76 77 78 79 84 90 92 91 91 93 93 92 92 95 97 97 97 97 96 97 99 100 99 98 98 98 98 99 99 100 100 100 100 100 100 100 100 100 100 100 100 100 99 98 98 97 96 94 91 87 81 75 72 70 70 70
48 57 63 64 62 61 66 73 77 78 77 77 80 81 81 79 78 78 78 77 76 78 82 88 92 93 93 94 95 94 92 92 95 97 97 96 94 92 92 94 96 96 96 95 96 98 98 99 100 100 100 100 100 100 100 100 100 100 100 100 99 99 99 99 98 97 96 94 90 85 81 78 75 72
43 50 59 62 59 57 59 65 73 78 79 78 78 79 80 79 78 79 80 79 77 76 77 81 87 91 93 93 92 92 91 91 92 92 92 90 89 87 86 86 88 91 92 93 93 95 97 99 99 100 100 100 100 100 100 100 100 100 100 100 99 99 99 99 99 98 98 97 97 95 91 88 84 79
41 46 54 58 56 55 56 59 64 71 77 79 78 76 77 77 76 78 81 82 80 78 76 76 79 84 88 89 89 89 89 89 89 88 88 87 85 85 84 82 83 84 87 89 90 92 94 97 98 99 100 100 100 100 100 100 100 100 100 100 100 99 99 99 99 99 99 99 99 98 97 95 93 89
37 40 45 48 48 51 55 56 58 62 68 74 76 75 74 74 74 76 79 81 81 80 77 75 74 75 78 81 83 84 86 87 87 86 86 86 85 85 84 84 84 83 84 86 88 90 91 93 96 98 99 100 101 100 100 100 100 100 100 100 100 99 99 99 99 100 100 100 99 99 98 97 97 96
32 33 37 40 44 48 53 56 57 58 61 67 71 73 72 70 69 71 74 76 78 78 78 76 74 71 71 72 74 77 80 82 84 84 83 84 86 87 86 86 86 85 84 85 87 88 89 89 92 96 98 99 100 100 99 100 100 100 100 100 100 100 99 99 99 100 100 100 99 99 99 98 98 97
28 29 30 35 40 45 49 54 57 58 59 61 64 67 69 69 67 66 67 69 71 73 73 74 74 73 71 69 69 71 73 75 77 79 79 80 82 84 86 86 85 85 84 84 84 86 87 88 89 92 96 99 100 100 99 99 100 100 100 99 99 100 100 99 99 100 100 100 99 99 99 99 99 98
27 28 28 30 35 41 46 51 55 58 59 59 60 62 65 66 66 65 64 63 64 66 67 68 69 71 71 70 69 68 68 69 71 73 74 74 75 77 80 81 82 82 83 84 84 83 84 85 87 89 92 96 99 100 100 99 99 100 99 99 99 99 99 99 99 100 100 100 99 99 98 98 98 98
27 28 29 29 31 36 42 48 52 55 57 59 59 59 61 63 65 65 65 63 61 60 60 61 62 64 66 68 70 70 69 69 69 69 70 71 71 72 72 73 75 76 77 80 83 83 83 83 84 85 88 92 95 97 100 100 99 99 98 98 98 99 99 99 98 98 99 99 99 99 98 98 97 98
30 29 30 31 31 32 36 42 47 51 54 56 57 58 58 59 60 61 63 63 62 59 57 56 55 56 57 59 63 66 69 70 70 69 69 69 69 70 70 70 71 71 73 75 79 84 87 87 85 82 83 87 90 94 97 99 98 98 98 99 99 99 99 98 97 98 99 99 99 99 100 99 99 98
35 34 32 33 33 33 33 35 40 46 51 53 55 55 56 56 56 56 57 59 61 62 61 58 55 53 51 50 51 54 57 60 63 66 67 67 67 67 67 68 68 69 70 72 75 81 87 89 87 83 80 80 85 91 94 95 97 98 99 99 100 100 98 97 98 99 99 99 99 100 100 100 100 100
38 38 37 35 35 35 35 35 36 39 45 49 53 54 55 55 55 54 55 56 57 59 61 61 61 58 54 50 48 47 47 49 52 56 61 63 65 65 64 65 66 66 65 66 69 75 81 84 86 86 82 80 84 90 93 93 94 95 95 95 97 98 98 98 99 99 99 99 99 99 98 98 99 99
40 41 41 40 38 37 36 36 35 36 38 43 48 51 53 54 54 55 55 55 55 55 57 59 61 62 61 58 54 50 48 46 46 48 52 57 62 65 66 66 66 66 64 62 63 69 75 77 80 83 84 83 85 89 91 90 90 90 90 92 93 95 97 98 98 98 99 99 99 98 97 97 98 98
45 43 43 43 43 40 38 37 37 36 35 36 40 45 49 51 52 53 54 54 54 54 54 55 57 59 61 62 61 58 54 50 48 47 47 49 53 58 63 66 69 69 68 66 65 68 71 72 74 77 80 82 85 87 89 89 89 88 88 88 90 92 94 95 97 98 99 100 99 98 97 97 97 96
49 47 46 45 45 44 42 39 37 36 35 34 34 36 40 44 47 48 49 50 50 51 52 52 53 54 56 59 61 62 61 58 54 51 49 47 47 50 53 59 65 69 71 70 70 70 70 70 71 73 76 79 82 85 87 88 89 89 88 87 87 88 90 92 94 96 97 98 97 97 97 97 95 94
48 48 47 46 46 46 45 42 39 37 34 32 31 30 32 35 39 43 46 47 48 48 49 50 50 51 52 54 56 59 61 61 60 58 55 52 49 48 48 50 56 65 71 72 71 71 72 72 73 74 76 78 80 82 84 86 87 89 90 90 88 87 87 88 89 90 91 92 93 93 94 94 94 94
49 49 47 45 44 44 44 44 42 40 37 34 33 31 30 30 33 36 41 44 47 48 49 49 49 49 49 50 51 54 56 59 61 61 60 58 55 52 50 49 51 58 67 73 75 74 72 73 75 77 80 82 82 81 82 85 87 90 93 93 91 89 88 88 89 88 86 86 87 88 88 88 89 90